Date String (YYYY-MM-DD hh:mm:ss) UTC,Instrument flags,Ambient pressure (hPa),Sample flow (lpm),Bypass flow (lpm),Sample temperature (°C),Ambient temperature (°C),ASC tube jacket temperature (°C),LED temperature (°C),Box temperature (°C),Sample RH (%),Span deviation,Mass concentration (μg/m³),Mass concentration (μg/m³),Mass concentration (μg/m³)
DateTimeUTC,F1_M11,P_M11,Q1_M11,Q2_M11,T1_M11,T2_M11,T3_M11,T4_M11,T5_M11,U1_M11,ZSPAN_M11,X2_M11,X0_M11,X1_M11
2021-08-28 05:00:00,,0824.1,5.00,0.00,29.4,25.7,00.0,38.5,30.7,16.9,0003.3,0004.25,0008.32,0003.85
2021-08-28 05:01:00,,0824.1,4.99,0.00,29.3,25.4,00.0,38.4,30.6,16.8,0003.4,0004.28,0008.39,0003.86
2021-08-28 05:02:00,,0824.1,5.01,0.00,29.2,25.8,00.0,38.4,30.6,17.1,0003.0,0004.26,0008.15,0003.86
2021-08-28 05:03:00,,0824.0,5.00,0.00,29.1,26.3,00.0,38.4,30.7,17.0,0002.7,0004.24,0008.30,0003.87
2021-08-28 05:04:00,,0824.1,4.98,0.00,29.1,26.8,00.0,38.3,30.8,16.8,0002.2,0004.25,0008.43,0003.88
2021-08-28 05:05:00,,0824.1,5.01,0.00,29.1,27.2,00.0,38.3,30.9,16.8,0001.3,0004.23,0008.39,0003.89
2021-08-28 05:06:00,,0824.1,4.99,0.00,29.2,27.5,00.0,38.3,30.9,16.2,0000.4,0004.20,0008.33,0003.88
2021-08-28 05:07:00,,0824.1,4.99,0.00,29.2,27.8,00.0,38.3,31.0,16.5,0000.4,0004.19,0007.99,0003.89
2021-08-28 05:08:00,,0824.1,5.01,0.00,29.2,28.0,00.0,38.3,31.1,16.4,0000.6,0004.16,0007.83,0003.88
2021-08-28 05:09:00,,0824.1,5.00,0.00,29.3,28.2,00.0,38.3,31.1,16.0,0000.6,0004.13,0007.67,0003.86
2021-08-28 05:10:00,,0824.1,4.99,0.00,29.3,28.3,00.0,38.3,31.2,15.5,0000.5,0004.10,0007.88,0003.84
2021-08-28 05:11:00,,0824.1,5.00,0.00,29.4,28.4,00.0,38.4,31.2,15.5,0000.4,0004.11,0007.95,0003.84
2021-08-28 05:12:00,,0824.1,5.01,0.00,29.4,28.5,00.0,38.4,31.3,15.8,0000.4,0004.10,0008.01,0003.82
2021-08-28 05:13:00,,0824.1,4.99,0.00,29.4,28.6,00.0,38.4,31.3,15.6,0000.3,0004.09,0008.01,0003.81
2021-08-28 05:14:00,,0824.1,5.00,0.00,29.5,28.7,00.0,38.4,31.4,15.2,0000.3,0004.07,0007.90,0003.80
2021-08-28 05:15:00,,0824.1,5.01,0.00,29.5,28.8,00.0,38.4,31.4,14.9,0000.4,0004.07,0007.77,0003.79
2021-08-28 05:16:00,,0824.1,5.00,0.00,29.6,28.8,00.0,38.5,31.5,14.9,0001.0,0004.07,0007.76,0003.77
2021-08-28 05:17:00,,0824.1,5.00,0.00,29.6,28.7,00.0,38.5,31.4,14.7,0001.7,0004.05,0007.77,0003.76
2021-08-28 05:18:00,,0824.1,5.01,0.00,29.5,27.1,00.0,38.5,31.0,14.6,0001.7,0004.01,0007.72,0003.74
2021-08-28 05:19:00,,0824.1,4.99,0.00,29.4,26.4,00.0,38.5,30.9,14.7,0001.5,0003.97,0007.68,0003.73
2021-08-28 05:20:00,,0824.1,5.00,0.00,29.3,26.6,00.0,38.5,30.9,15.0,0001.4,0003.99,0007.64,0003.72
2021-08-28 05:21:00,,0824.1,4.99,0.00,29.3,27.0,00.0,38.5,30.9,15.3,0001.7,0004.00,0007.19,0003.73
2021-08-28 05:22:00,,0824.1,5.01,0.00,29.3,27.4,00.0,38.4,31.0,15.4,0001.7,0003.99,0007.20,0003.72
2021-08-28 05:23:00,,0824.1,5.00,0.00,29.3,27.7,00.0,38.4,31.0,15.6,0001.4,0003.98,0007.04,0003.72
2021-08-28 05:24:00,,0824.1,4.99,0.00,29.4,27.9,00.0,38.4,31.1,15.7,0001.1,0004.02,0007.70,0003.72
2021-08-28 05:25:00,,0824.1,5.01,0.00,29.4,28.1,00.0,38.4,31.2,15.6,0001.1,0004.05,0008.59,0003.73
2021-08-28 05:26:00,,0824.1,5.01,0.00,29.4,28.3,00.0,38.5,31.3,15.4,0001.0,0004.05,0008.65,0003.74
2021-08-28 05:27:00,,0824.1,4.99,0.00,29.5,28.4,00.0,38.5,31.3,15.1,0000.9,0004.05,0008.62,0003.75
2021-08-28 05:28:00,,0824.1,4.99,0.00,29.5,28.6,00.0,38.5,31.3,15.7,0000.7,0004.04,0008.55,0003.75
2021-08-28 05:29:00,,0824.2,5.00,0.00,29.6,28.7,00.0,38.5,31.4,16.1,0000.8,0004.06,0008.59,0003.76
2021-08-28 05:30:00,,0824.2,5.00,0.00,29.6,28.7,00.0,38.5,31.4,15.8,0001.1,0004.11,0008.74,0003.78
2021-08-28 05:31:00,,0824.2,5.02,0.00,29.6,28.5,00.0,38.6,31.4,15.7,0001.2,0004.16,0008.71,0003.79
2021-08-28 05:32:00,,0824.2,5.00,0.00,29.5,26.8,00.0,38.6,31.0,15.3,0001.0,0004.14,0008.68,0003.79
2021-08-28 05:33:00,,0824.1,5.00,0.00,29.4,26.4,00.0,38.5,30.9,15.2,0000.6,0004.14,0008.60,0003.80
2021-08-28 05:34:00,,0824.2,5.00,0.00,29.4,26.6,00.0,38.5,30.9,15.4,0000.7,0004.15,0008.61,0003.82
2021-08-28 05:35:00,,0824.2,4.99,0.00,29.3,27.0,00.0,38.5,31.0,15.1,0000.8,0004.14,0008.51,0003.81
2021-08-28 05:36:00,,0824.2,5.00,0.00,29.3,27.4,00.0,38.5,31.0,14.8,0001.0,0004.13,0007.98,0003.80
2021-08-28 05:37:00,,0824.2,5.00,0.00,29.4,27.7,00.0,38.5,31.1,15.0,0001.3,0004.14,0007.84,0003.80
2021-08-28 05:38:00,,0824.2,4.98,0.00,29.4,28.0,00.0,38.5,31.2,15.6,0001.2,0004.13,0007.74,0003.79
2021-08-28 05:39:00,,0824.2,5.01,0.00,29.4,28.1,00.0,38.5,31.2,15.2,0001.3,0004.17,0007.80,0003.79
2021-08-28 05:40:00,,0824.2,5.00,0.00,29.5,28.3,00.0,38.5,31.3,15.1,0001.4,0004.17,0007.76,0003.79
2021-08-28 05:41:00,,0824.2,5.00,0.00,29.5,28.4,00.0,38.5,31.3,15.0,0001.3,0004.13,0007.63,0003.77
2021-08-28 05:42:00,,0824.3,5.01,0.00,29.5,28.6,00.0,38.5,31.4,15.2,0001.3,0004.09,0007.57,0003.75
2021-08-28 05:43:00,,0824.2,5.00,0.00,29.6,28.6,00.0,38.5,31.4,15.2,0001.4,0004.09,0007.62,0003.75
2021-08-28 05:44:00,,0824.2,4.99,0.00,29.6,28.7,00.0,38.6,31.5,15.2,0002.0,0004.10,0007.66,0003.75
2021-08-28 05:45:00,,0824.2,5.00,0.00,29.7,28.8,00.0,38.6,31.5,15.2,0002.2,0004.12,0007.79,0003.75
2021-08-28 05:46:00,,0824.2,5.00,0.00,29.7,28.5,00.0,38.6,31.4,15.3,0002.4,0004.09,0007.43,0003.74
2021-08-28 05:47:00,,0824.3,5.00,0.00,29.6,26.7,00.0,38.6,31.0,16.0,0002.3,0004.08,0006.76,0003.74
2021-08-28 05:48:00,,0824.4,5.01,0.00,29.5,26.4,00.0,38.6,30.9,15.7,0001.9,0004.05,0006.71,0003.73
2021-08-28 05:49:00,,0824.5,5.01,0.00,29.4,26.7,00.0,38.6,30.9,15.6,0002.1,0004.04,0006.68,0003.74
2021-08-28 05:50:00,,0824.5,4.98,0.00,29.3,27.1,00.0,38.5,30.9,15.6,0001.9,0004.01,0006.62,0003.73
2021-08-28 05:51:00,,0824.3,5.01,0.00,29.4,27.4,00.0,38.5,31.0,15.5,0002.0,0004.02,0006.69,0003.73
2021-08-28 05:52:00,,0824.3,5.00,0.00,29.4,27.7,00.0,38.5,31.1,15.6,0002.0,0004.05,0006.90,0003.74
2021-08-28 05:53:00,,0824.3,5.01,0.00,29.4,28.0,00.0,38.5,31.2,15.5,0002.1,0004.05,0006.73,0003.75
2021-08-28 05:54:00,,0824.3,5.01,0.00,29.5,28.1,00.0,38.5,31.2,15.3,0001.9,0004.04,0006.66,0003.74
2021-08-28 05:55:00,,0824.3,4.99,0.00,29.5,28.3,00.0,38.5,31.3,15.1,0001.8,0004.04,0006.62,0003.75
2021-08-28 05:56:00,,0824.3,4.99,0.00,29.5,28.4,00.0,38.5,31.3,15.0,0002.0,0004.00,0006.28,0003.74
2021-08-28 05:57:00,,0824.4,5.01,0.00,29.6,28.5,00.0,38.6,31.4,14.9,0001.7,0003.99,0006.51,0003.73
2021-08-28 05:58:00,,0824.3,4.99,0.00,29.6,28.6,00.0,38.6,31.4,15.5,0001.2,0004.00,0006.65,0003.73
2021-08-28 05:59:00,,0824.3,4.99,0.00,29.6,28.7,00.0,38.6,31.4,15.1,0001.4,0004.02,0006.71,0003.73
